Weather History for Moorhead, MN

Change the Weather History Date:

Wednesday, December 12, 2012

  Actual Average (KFAR) Record (KFAR)
Temperature  
Mean Temperature 17 °F 15 °F  
Max Temperature 26 °F 23 °F 55 °F (1883)
Min Temperature 8 °F 7 °F -23 °F (1942)
Degree Days  
Heating Degree Days 48 50  
Month to date heating degree days 573  
Since 1 July heating degree days 2535  
Cooling Degree Days 0 0  
Month to date cooling degree days 0  
Year to date cooling degree days 551  
Moisture  
Dew Point 16 °F    
Average Humidity 88    
Maximum Humidity 100    
Minimum Humidity 74    
Precipitation  
Precipitation 0.00 in 0.03 in 0.42 in (1973)
Month to date precipitation 0.32  
Year to date precipitation 22.10  
Snow  
Snow 0.00 in 0.30 in 4.40 in (1973)
Month to date snowfall 4.1  
Since 1 July snowfall 12.7  
Snow Depth -    
Sea Level Pressure  
Sea Level Pressure 29.82 in    
Wind  
Wind Speed 11 mph (SSE)    
Max Wind Speed 18 mph    
Max Gust Speed 25 mph    
Visibility 10 miles    
Events      
T = Trace of Precipitation, MM = Missing Value Source: NWS Daily Summary

Daily Weather History Graph

Daily Weather History Graph

Search for Another Location

Airport:

Trip Planner

Search our weather history database for the weather conditions in past years. The results will help you decide how hot, cold, wet, or windy it might be!

Date:

Astronomy

Dec. 12, 2012 Rise Set
Actual Time 8:03 AM CST 4:38 PM CST
Civil Twilight 7:27 AM CST 5:13 PM CST
Nautical Twilight 6:49 AM CST 5:51 PM CST
Astronomical Twilight 6:12 AM CST 6:28 PM CST
Moon 7:07 AM CST (12/12) 4:17 PM CST (12/12)
Length of Visible Light 9h 45m
Length of Day
8h 35m
Waning Crescent, 1% of the Moon is Illuminated
Dec 12
Waning Crescent
Dec 13
New
Dec 19
First Quarter
Dec 28
Full
Jan 4
Last Quarter

Hourly Weather History & Observations

Time (CST) Temp. Windchill Dew Point Humidity Pressure Visibility Wind Dir Wind Speed Gust Speed Precip Events Conditions
12:15 AM 8.6 °F -4.7 °F 6.8 °F 92% 29.87 in 10.0 mi SE 9.2 mph - N/A   Clear
12:35 AM 10.4 °F -3.3 °F 6.8 °F 85% 29.86 in 10.0 mi SE 10.4 mph - N/A   Clear
12:55 AM 10.4 °F -3.3 °F 6.8 °F 85% 29.86 in 10.0 mi SSE 10.4 mph - N/A   Scattered Clouds
1:15 AM 10.4 °F -2.4 °F 6.8 °F 85% 29.85 in 10.0 mi SSE 9.2 mph - N/A   Mostly Cloudy
1:34 AM 10.4 °F -3.3 °F 6.8 °F 85% 29.84 in 10.0 mi SE 10.4 mph - N/A   Mostly Cloudy
1:55 AM 10.4 °F -3.3 °F 8.6 °F 92% 29.84 in 10.0 mi SSE 10.4 mph - N/A   Overcast
2:15 AM 12.2 °F -1.8 °F 8.6 °F 85% 29.83 in 10.0 mi SSE 11.5 mph - N/A   Overcast
2:34 AM 12.2 °F -2.5 °F 8.6 °F 85% 29.83 in 10.0 mi SE 12.7 mph - N/A   Overcast
2:55 AM 14.0 °F 0.5 °F 10.4 °F 86% 29.82 in 10.0 mi SSE 11.5 mph - N/A   Overcast
3:15 AM 14.0 °F -0.2 °F 10.4 °F 86% 29.79 in 10.0 mi SE 12.7 mph - N/A   Overcast
3:34 AM 15.8 °F 2.1 °F 10.4 °F 79% 29.78 in 10.0 mi SSE 12.7 mph - N/A   Scattered Clouds
3:55 AM 15.8 °F 2.1 °F 10.4 °F 79% 29.77 in 10.0 mi SSE 12.7 mph - N/A   Clear
4:15 AM 15.8 °F 2.1 °F 12.2 °F 86% 29.76 in 10.0 mi SSE 12.7 mph - N/A   Clear
4:34 AM 15.8 °F 2.1 °F 14.0 °F 93% 29.75 in 10.0 mi SSE 12.7 mph - N/A   Mostly Cloudy
4:55 AM 17.6 °F 5.0 °F 15.8 °F 93% 29.74 in 10.0 mi SSE 11.5 mph - N/A   Mostly Cloudy
5:14 AM 17.6 °F 5.0 °F 15.8 °F 93% 29.74 in 10.0 mi SSE 11.5 mph - N/A   Overcast
5:35 AM 19.4 °F 4.5 °F 17.6 °F 93% 29.73 in 10.0 mi SSE 17.3 mph - N/A   Overcast
5:55 AM 21.2 °F 6.4 °F 19.4 °F 93% 29.73 in 10.0 mi SSE 18.4 mph 21.9 mph N/A   Overcast
6:14 AM 21.2 °F 7.8 °F 19.4 °F 93% 29.72 in 10.0 mi SSE 15.0 mph 20.7 mph N/A   Overcast
6:35 AM 21.2 °F 7.8 °F 19.4 °F 93% 29.71 in 10.0 mi SSE 15.0 mph - N/A   Overcast
7:14 AM 23.0 °F 11.7 °F 19.4 °F 86% 29.73 in 10.0 mi South 11.5 mph 18.4 mph N/A   Overcast
7:35 AM 21.2 °F 7.8 °F 19.4 °F 93% 29.73 in 10.0 mi South 15.0 mph 18.4 mph N/A   Overcast
7:55 AM 21.2 °F 7.8 °F 19.4 °F 93% 29.72 in 10.0 mi South 15.0 mph 20.7 mph N/A   Overcast
8:14 AM 21.2 °F 7.8 °F 19.4 °F 93% 29.72 in 10.0 mi South 15.0 mph - N/A   Overcast
8:35 AM 21.2 °F 7.8 °F 19.4 °F 93% 29.72 in 10.0 mi South 15.0 mph 23.0 mph N/A   Overcast
8:55 AM 21.2 °F 6.8 °F 19.4 °F 93% 29.71 in 10.0 mi South 17.3 mph 25.3 mph N/A   Overcast
9:14 AM 21.2 °F 8.9 °F 19.4 °F 93% 29.72 in 10.0 mi South 12.7 mph - N/A   Overcast
9:35 AM 21.2 °F 9.5 °F 19.4 °F 93% 29.73 in 10.0 mi South 11.5 mph 16.1 mph N/A   Scattered Clouds
9:54 AM 23.0 °F 9.6 °F 19.4 °F 86% 29.74 in 10.0 mi South 16.1 mph 19.6 mph N/A   Scattered Clouds
10:15 AM 24.8 °F 12.4 °F 19.4 °F 80% 29.74 in 10.0 mi South 15.0 mph - N/A   Scattered Clouds
10:35 AM 24.8 °F 12.9 °F 19.4 °F 80% 29.75 in 10.0 mi South 13.8 mph 17.3 mph N/A   Scattered Clouds
10:54 AM 24.8 °F 14.0 °F 19.4 °F 80% 29.75 in 10.0 mi South 11.5 mph 16.1 mph N/A   Scattered Clouds
11:15 AM 24.8 °F 16.9 °F 19.4 °F 80% 29.76 in 10.0 mi South 6.9 mph - N/A   Clear
11:35 AM 24.8 °F 16.9 °F 19.4 °F 80% 29.76 in 10.0 mi South 6.9 mph - N/A   Clear
11:55 AM 26.6 °F 16.2 °F 21.2 °F 80% 29.76 in 10.0 mi SSW 11.5 mph - N/A   Clear
12:15 PM 26.6 °F 15.7 °F 21.2 °F 80% 29.75 in 10.0 mi SSW 12.7 mph - N/A   Clear
12:34 PM 26.6 °F 16.8 °F 21.2 °F 80% 29.76 in 10.0 mi SSW 10.4 mph - N/A   Clear
12:55 PM 26.6 °F 16.2 °F 21.2 °F 80% 29.76 in 10.0 mi SSW 11.5 mph - N/A   Clear
1:15 PM 24.8 °F 15.3 °F 21.2 °F 86% 29.76 in 10.0 mi SSW 9.2 mph - N/A   Clear
1:55 PM 26.6 °F 19.1 °F 21.2 °F 80% 29.76 in 10.0 mi WSW 6.9 mph - N/A   Clear
2:15 PM 26.6 °F - 19.4 °F 74% 29.76 in 10.0 mi Calm Calm - N/A   Clear
2:34 PM 26.6 °F 22.6 °F 21.2 °F 80% 29.77 in 10.0 mi West 3.5 mph - N/A   Clear
2:55 PM 26.6 °F 21.2 °F 19.4 °F 74% 29.78 in 10.0 mi West 4.6 mph - N/A   Clear
3:15 PM 26.6 °F - 19.4 °F 74% 29.79 in 10.0 mi Calm Calm - N/A   Clear
3:34 PM 24.8 °F 20.5 °F 21.2 °F 86% 29.80 in 10.0 mi NW 3.5 mph - N/A   Clear
3:55 PM 24.8 °F 20.5 °F 21.2 °F 86% 29.81 in 10.0 mi NW 3.5 mph - N/A   Clear
4:14 PM 24.8 °F 15.3 °F 21.2 °F 86% 29.81 in 10.0 mi North 9.2 mph - N/A   Clear
4:35 PM 23.0 °F 13.1 °F 19.4 °F 86% 29.82 in 10.0 mi North 9.2 mph - N/A   Clear
4:55 PM 21.2 °F 10.9 °F 19.4 °F 93% 29.83 in 10.0 mi North 9.2 mph - N/A   Clear
5:14 PM 21.2 °F 10.9 °F 19.4 °F 93% 29.84 in 10.0 mi North 9.2 mph - N/A   Clear
5:35 PM 21.2 °F 8.3 °F 19.4 °F 93% 29.85 in 10.0 mi North 13.8 mph - N/A   Clear
5:55 PM 21.2 °F 8.3 °F 19.4 °F 93% 29.87 in 10.0 mi North 13.8 mph - N/A   Clear
6:14 PM 19.4 °F 6.0 °F 17.6 °F 93% 29.87 in 10.0 mi North 13.8 mph - N/A   Clear
6:35 PM 17.6 °F 5.0 °F 17.6 °F 100% 29.88 in 10.0 mi North 11.5 mph - N/A   Clear
6:55 PM 17.6 °F 5.0 °F 15.8 °F 93% 29.88 in 10.0 mi North 11.5 mph - N/A   Clear
7:14 PM 17.6 °F 5.0 °F 15.8 °F 93% 29.90 in 10.0 mi North 11.5 mph - N/A   Clear
7:35 PM 15.8 °F 1.4 °F 15.8 °F 100% 29.91 in 10.0 mi North 13.8 mph - N/A   Mostly Cloudy
7:54 PM 15.8 °F 2.1 °F 12.2 °F 86% 29.92 in 10.0 mi North 12.7 mph - N/A   Overcast
8:15 PM 14.0 °F 0.5 °F 12.2 °F 93% 29.93 in 10.0 mi North 11.5 mph - N/A   Overcast
8:35 PM 14.0 °F 1.2 °F 12.2 °F 93% 29.93 in 10.0 mi North 10.4 mph - N/A   Overcast
8:54 PM 14.0 °F 2.0 °F 12.2 °F 93% 29.94 in 10.0 mi North 9.2 mph - N/A   Overcast
9:15 PM 14.0 °F 0.5 °F 12.2 °F 93% 29.94 in 10.0 mi North 11.5 mph - N/A   Overcast
9:35 PM 14.0 °F 2.0 °F 12.2 °F 93% 29.95 in 10.0 mi North 9.2 mph - N/A   Overcast
9:54 PM 12.2 °F -3.1 °F 12.2 °F 100% 29.94 in 10.0 mi North 13.8 mph - N/A   Overcast
10:15 PM 12.2 °F -4.3 °F 10.4 °F 92% 29.94 in 7.0 mi North 16.1 mph - N/A   Mostly Cloudy
10:35 PM 12.2 °F -3.1 °F 10.4 °F 92% 29.95 in 10.0 mi North 13.8 mph - N/A   Mostly Cloudy
10:54 PM 12.2 °F -2.5 °F 10.4 °F 92% 29.96 in 7.0 mi North 12.7 mph - N/A   Overcast
11:15 PM 12.2 °F -2.5 °F 10.4 °F 92% 29.96 in 10.0 mi NNE 12.7 mph - N/A   Mostly Cloudy
11:35 PM 10.4 °F -6.6 °F 8.6 °F 92% 29.95 in 10.0 mi NNE 16.1 mph - N/A   Overcast
11:55 PM 10.4 °F -4.1 °F 10.4 °F 100% 29.96 in 10.0 mi North 11.5 mph - N/A   Overcast